FW7144 Weather Reports


time (UTC)temp
C
wind
direction
speed
KPH
gust
KPH
rain 1hr
cm
rain 24hr
cm
rain mn
cm
humidity
%
barometer
mb
20260506180205 30 24 4.8 22.5 0.00 0.00 0.00 13 1021.1
20260506175605 30 87 0.0 17.7 0.00 0.00 0.00 11 1021.0
20260506175005 30 15 0.0 16.1 0.00 0.00 0.00 12 1021.0
20260506174405 30 0 0.0 19.3 0.00 0.00 0.00 14 1021.0
20260506173805 29 331 6.4 20.9 0.00 0.00 0.00 15 1021.0
20260506173205 30 21 0.0 27.4 0.00 0.00 0.00 13 1021.0
20260506172605 29 336 6.4 29.0 0.00 0.00 0.00 16 1021.2
20260506172006 29 344 4.8 19.3 0.00 0.00 0.00 14 1021.2
20260506171418 28 284 6.4 17.7 0.00 0.00 0.00 13 1021.1
20260506170818 28 261 4.8 24.1 0.00 0.00 0.00 16 1021.2
20260506170205 28 346 3.2 9.7 0.00 0.00 0.00 16 1021.3
20260506165617 27 319 3.2 14.5 0.00 0.00 0.00 14 1021.4
20260506165005 27 262 0.0 9.7 0.00 0.00 0.00 13 1021.4
20260506164406 27 269 0.0 12.9 0.00 0.00 0.00 15 1021.4
20260506163805 27 269 9.7 16.1 0.00 0.00 0.00 15 1021.4
20260506163205 27 135 0.0 12.9 0.00 0.00 0.00 13 1021.4
20260506162605 27 300 3.2 11.3 0.00 0.00 0.00 15 1021.4
20260506162005 26 302 0.0 12.9 0.00 0.00 0.00 14 1021.4
20260506161430 27 338 4.8 11.3 0.00 0.00 0.00 19 1021.5
20260506160830 26 308 4.8 12.9 0.00 0.00 0.00 16 1021.5
20260506160205 26 63 0.0 8.0 0.00 0.00 0.00 15 1021.5
20260506155605 26 96 4.8 9.7 0.00 0.00 0.00 14 1021.5
20260506155005 26 107 0.0 6.4 0.00 0.00 0.00 15 1021.6
20260506154405 25 124 1.6 9.7 0.00 0.00 0.00 14 1021.6
20260506153830 25 83 3.2 11.3 0.00 0.00 0.00 14 1021.6
20260506153205 25 87 0.0 8.0 0.00 0.00 0.00 15 1021.6
20260506152605 25 329 0.0 8.0 0.00 0.00 0.00 15 1021.7
20260506152005 24 114 3.2 8.0 0.00 0.00 0.00 16 1021.7
20260506151405 25 324 0.0 3.2 0.00 0.00 0.00 17 1021.7
20260506150805 24 299 0.0 6.4 0.00 0.00 0.00 18 1021.7
20260506150206 24 274 0.0 6.4 0.00 0.00 0.00 20 1021.8
20260506145605 24 241 0.0 8.0 0.00 0.00 0.00 20 1021.8
20260506145030 23 272 0.0 4.8 0.00 0.00 0.00 22 1021.8
20260506144405 23 272 0.0 4.8 0.00 0.00 0.00 21 1021.8
20260506143805 22 237 0.0 4.8 0.00 0.00 0.00 25 1021.9
20260506143205 22 309 0.0 3.2 0.00 0.00 0.00 26 1022.0
20260506142605 21 288 0.0 0.0 0.00 0.00 0.00 28 1022.0
20260506142043 20 208 0.0 0.0 0.00 0.00 0.00 32 1022.0
20260506141405 19 220 0.0 0.0 0.00 0.00 0.00 36 1021.9
20260506140805 18 220 0.0 3.2 0.00 0.00 0.00 34 1021.9
20260506140206 17 70 0.0 9.7 0.00 0.00 0.00 37 1021.9
20260506135605 16 105 0.0 8.0 0.00 0.00 0.00 39 1021.8
20260506135005 16 98 3.2 6.4 0.00 0.00 0.00 39 1021.9
20260506134406 15 73 3.2 6.4 0.00 0.00 0.00 39 1021.8
20260506133805 15 56 1.6 4.8 0.00 0.00 0.00 44 1021.8
20260506133205 14 91 4.8 6.4 0.00 0.00 0.00 43 1021.7
20260506132630 13 71 3.2 4.8 0.00 0.00 0.00 45 1021.7
20260506132005 13 74 1.6 8.0 0.00 0.00 0.00 43 1021.6
20260506131405 12 115 4.8 9.7 0.00 0.00 0.00 48 1021.5
20260506130805 11 106 4.8 8.0 0.00 0.00 0.00 51 1021.5
20260506130205 9 75 3.2 8.0 0.00 0.00 0.00 57 1021.3
20260506125605 8 67 3.2 9.7 0.00 0.00 0.00 60 1021.3
20260506125005 8 134 3.2 6.4 0.00 0.00 0.00 61 1021.3
20260506124405 6 83 0.0 4.8 0.00 0.00 0.00 67 1021.3
20260506123805 6 116 0.0 3.2 0.00 0.00 0.00 68 1021.2
20260506123230 5 92 0.0 3.2 0.00 0.00 0.00 69 1021.3
20260506122605 5 101 0.0 3.2 0.00 0.00 0.00 68 1021.2
20260506122005 5 85 0.0 4.8 0.00 0.00 0.00 68 1021.1
20260506121405 6 116 3.2 4.8 0.00 0.00 0.00 68 1021.0
20260506120818 6 58 0.0 4.8 0.00 0.00 0.00 66 1021.0
20260506120205 7 129 0.0 8.0 0.00 0.00 0.00 61 1021.0
20260506115605 8 100 3.2 8.0 0.00 0.00 0.00 60 1020.9
20260506115005 7 145 3.2 9.7 0.00 0.00 0.00 65 1020.9
20260506114405 6 117 1.6 8.0 0.00 0.00 0.00 65 1020.9
20260506113805 6 142 4.8 8.0 0.00 0.00 0.00 67 1020.8
20260506113205 6 137 3.2 9.7 0.00 0.00 0.00 68 1020.8
20260506112605 5 129 3.2 9.7 0.00 0.00 0.00 66 1020.8
20260506112005 6 122 3.2 6.4 0.00 0.00 0.00 64 1020.8
20260506111405 6 114 0.0 11.3 0.00 0.00 0.00 66 1020.8
20260506110830 6 106 3.2 9.7 0.00 0.00 0.00 67 1020.8
20260506110205 6 113 0.0 4.8 0.00 0.00 0.00 62 1020.8
20260506105655 7 81 0.0 3.2 0.00 0.00 0.00 61 1020.7
20260506105005 7 74 0.0 6.4 0.00 0.00 0.00 63 1020.6
20260506104405 7 6 0.0 8.0 0.00 0.00 0.00 63 1020.6
20260506103805 7 62 0.0 6.4 0.00 0.00 0.00 62 1020.6
20260506103217 7 110 3.2 6.4 0.00 0.00 0.00 61 1020.6
20260506102605 6 143 0.0 4.8 0.00 0.00 0.00 65 1020.5
20260506102017 6 102 3.2 6.4 0.00 0.00 0.00 64 1020.4
20260506101405 6 90 0.0 9.7 0.00 0.00 0.00 63 1020.4
20260506100805 6 67 0.0 3.2 0.00 0.00 0.00 62 1020.2
20260506100205 6 39 0.0 6.4 0.00 0.00 0.00 63 1020.2
20260506095618 6 50 0.0 4.8 0.00 0.00 0.00 62 1020.2
20260506095042 6 77 0.0 6.4 0.00 0.00 0.00 62 1020.0
20260506094405 7 87 4.8 9.7 0.00 0.00 0.00 59 1019.9
20260506093805 6 128 1.6 4.8 0.00 0.00 0.00 64 1019.8
20260506093205 6 123 0.0 6.4 0.00 0.00 0.00 62 1019.8
20260506092605 6 114 3.2 8.0 0.00 0.00 0.00 63 1019.7
20260506092005 6 123 1.6 3.2 0.00 0.00 0.00 64 1019.7
20260506091405 6 84 0.0 3.2 0.00 0.00 0.00 62 1019.7
20260506090805 6 76 0.0 4.8 0.00 0.00 0.00 63 1019.7
20260506090205 6 85 4.8 6.4 0.00 0.00 0.00 60 1019.6
20260506085605 7 77 0.0 6.4 0.00 0.00 0.00 59 1019.5
20260506085005 7 96 0.0 9.7 0.00 0.00 0.00 59 1019.5
20260506084405 7 97 1.6 6.4 0.00 0.00 0.00 57 1019.5
20260506083830 7 84 0.0 4.8 0.00 0.00 0.00 58 1019.5
20260506083205 7 109 0.0 4.8 0.00 0.00 0.00 55 1019.5
20260506082605 8 84 0.0 6.4 0.00 0.00 0.00 50 1019.5
20260506082005 10 81 0.0 4.8 0.00 0.00 0.00 53 1019.6
20260506081405 8 92 3.2 6.4 0.00 0.00 0.00 54 1019.6
20260506080806 8 119 0.0 4.8 0.00 0.00 0.00 55 1019.6
20260506080218 8 120 0.0 3.2 0.00 0.00 0.00 53 1019.6
20260506073205 9 85 0.0 4.8 0.00 0.00 0.00 49 1019.7
20260506072606 10 90 1.6 3.2 0.00 0.00 0.00 46 1019.8
20260506072018 11 31 0.0 4.8 0.00 0.00 0.00 44 1019.7
20260506071406 12 124 0.0 9.7 0.00 0.00 0.00 44 1019.7
20260506070805 12 101 4.8 11.3 0.00 0.00 0.00 39 1019.7
20260506070205 11 112 3.2 4.8 0.00 0.00 0.00 44 1019.8
20260506062005 11 49 0.0 4.8 0.00 0.00 0.00 45 1019.9
20260506061430 11 64 0.0 4.8 0.00 0.00 0.00 43 1019.8
20260506060830 12 49 0.0 3.2 0.00 0.00 0.00 42 1019.8
20260506060205 12 114 0.0 4.8 0.00 0.00 0.00 40 1019.8
20260506051405 14 96 6.4 9.7 0.00 0.00 0.00 37 1019.8
20260506050805 15 73 4.8 9.7 0.00 0.00 0.00 34 1019.7
20260506050230 14 78 4.8 9.7 0.00 0.00 0.00 35 1019.7
20260506045005 13 82 4.8 8.0 0.00 0.00 0.00 36 1019.7
20260506044405 13 70 3.2 9.7 0.00 0.00 0.00 37 1019.7
20260506043830 14 80 0.0 11.3 0.00 0.00 0.00 35 1019.6
20260506043205 15 85 4.8 9.7 0.00 0.00 0.00 36 1019.5
20260506042617 15 70 0.0 3.2 0.00 0.00 0.00 39 1019.4
20260506042005 16 100 0.0 9.7 0.00 0.00 0.00 35 1019.4
20260506041405 16 76 0.0 4.8 0.00 0.00 0.00 34 1019.4
20260506040805 17 91 0.0 4.8 0.00 0.00 0.00 37 1019.3
20260506040205 17 109 0.0 0.0 0.00 0.00 0.00 36 1019.2
20260506035605 17 123 0.0 3.2 0.00 0.00 0.00 35 1019.2
20260506035005 16 81 0.0 0.0 0.00 0.00 0.00 36 1019.1
20260506034405 16 194 0.0 0.0 0.00 0.00 0.00 38 1019.0
20260506033805 17 79 0.0 0.0 0.00 0.00 0.00 33 1018.9
20260506033205 18 79 0.0 4.8 0.00 0.00 0.00 33 1018.9
20260506032605 20 144 0.0 4.8 0.00 0.00 0.00 29 1018.8
20260506032030 20 160 0.0 3.2 0.00 0.00 0.00 29 1018.7
20260506031405 21 191 0.0 3.2 0.00 0.00 0.00 27 1018.6
20260506030805 21 187 0.0 8.0 0.00 0.00 0.00 26 1018.6
20260506030205 18 249 0.0 0.0 0.00 0.00 0.00 29 1018.6
20260506025605 18 54 0.0 4.8 0.00 0.00 0.00 33 1018.5
20260506025005 20 30 0.0 6.4 0.00 0.00 0.00 27 1018.4
20260506024443 20 42 0.0 6.4 0.00 0.00 0.00 26 1018.3
20260506023805 20 58 0.0 11.3 0.00 0.00 0.00 24 1018.3
20260506023205 21 56 3.2 8.0 0.00 0.00 0.00 25 1018.2
20260506022605 21 41 3.2 9.7 0.00 0.00 0.00 24 1018.1
20260506022006 21 59 1.6 8.0 0.00 0.00 0.00 24 1018.1
20260506021405 22 87 3.2 11.3 0.00 0.00 0.00 23 1018.0
20260506020805 24 64 9.7 14.5 0.00 0.00 0.00 22 1017.9
20260506020205 23 87 6.4 12.9 0.00 0.00 0.00 22 1017.8
20260506015605 23 84 6.4 9.7 0.00 0.00 0.00 21 1017.7
20260506015030 23 89 3.2 9.7 0.00 0.00 0.00 22 1017.7
20260506014405 24 83 4.8 11.3 0.00 0.00 0.00 21 1017.6
20260506013805 25 77 8.0 12.9 0.00 0.00 0.00 20 1017.5
20260506013205 25 81 9.7 12.9 0.00 0.00 0.00 19 1017.4
20260506012605 25 86 8.0 14.5 0.00 0.00 0.00 19 1017.3
20260506012005 25 77 0.0 12.9 0.00 0.00 0.00 22 1017.3
20260506011430 25 71 3.2 12.9 0.00 0.00 0.00 20 1017.3
20260506010805 26 71 1.6 12.9 0.00 0.00 0.00 20 1017.2
20260506010205 26 79 3.2 9.7 0.00 0.00 0.00 19 1017.2
20260506005605 27 59 3.2 12.9 0.00 0.00 0.00 18 1017.1
20260506005006 28 62 4.8 14.5 0.00 0.00 0.00 15 1017.1
20260506004430 28 105 6.4 16.1 0.00 0.00 0.00 15 1017.1
20260506003805 29 84 6.4 14.5 0.00 0.00 0.00 14 1017.1
20260506003205 30 0 3.2 14.5 0.00 0.00 0.00 7 1017.1
20260506002605 30 317 3.2 6.4 0.00 0.00 0.00 8 1017.1
20260506002005 31 8 0.0 17.7 0.00 0.00 0.00 8 1017.0
20260506001405 31 78 0.0 16.1 0.00 0.00 0.00 9 1017.0
20260506000805 31 47 0.0 12.9 0.00 0.00 0.00 9 1017.0
20260506000205 31 315 3.2 12.9 0.00 0.00 0.00 9 1016.9
20260505235605 31 18 3.2 14.5 0.00 0.00 0.00 8 1016.9
20260505235005 31 354 0.0 12.9 0.00 0.00 0.00 9 1016.9
20260505234430 31 333 3.2 17.7 0.00 0.00 0.00 10 1016.9
20260505233805 32 70 3.2 17.7 0.00 0.00 0.00 9 1016.9
20260505233206 32 17 3.2 22.5 0.00 0.00 0.00 9 1016.9
20260505232605 32 351 3.2 22.5 0.00 0.00 0.00 9 1016.9
20260505232030 32 336 4.8 11.3 0.00 0.00 0.00 10 1016.8
20260505231405 32 76 0.0 19.3 0.00 0.00 0.00 10 1016.9
20260505230805 32 9 3.2 19.3 0.00 0.00 0.00 10 1016.9
20260505230205 32 314 6.4 20.9 0.00 0.00 0.00 10 1016.9
20260505225605 32 344 3.2 14.5 0.00 0.00 0.00 11 1016.9
20260505225005 32 318 3.2 20.9 0.00 0.00 0.00 12 1016.9
20260505224405 32 158 0.0 12.9 0.00 0.00 0.00 10 1017.0
20260505223805 32 29 3.2 20.9 0.00 0.00 0.00 9 1017.1
20260505223205 32 335 0.0 16.1 0.00 0.00 0.00 13 1017.3
20260505222630 32 113 0.0 22.5 0.00 0.00 0.00 11 1017.3
20260505222005 32 19 0.0 20.9 0.00 0.00 0.00 14 1017.3
20260505221508 32 354 6.4 22.5 0.00 0.00 0.00 10 1017.3
20260505220830 32 334 0.0 25.7 0.00 0.00 0.00 11 1017.3
20260505220206 32 7 1.6 17.7 0.00 0.00 0.00 13 1017.5
20260505215605 32 314 4.8 17.7 0.00 0.00 0.00 16 1017.4
20260505215005 31 247 4.8 16.1 0.00 0.00 0.00 15 1017.5
20260505214405 32 354 4.8 20.9 0.00 0.00 0.00 14 1017.6
20260505213817 31 308 8.0 25.7 0.00 0.00 0.00 14 1017.6
20260505213205 31 343 8.0 30.6 0.00 0.00 0.00 14 1017.7
20260505212605 31 12 6.4 20.9 0.00 0.00 0.00 16 1017.9
20260505212005 32 262 6.4 19.3 0.00 0.00 0.00 16 1018.0
20260505211405 31 304 4.8 20.9 0.00 0.00 0.00 17 1018.1
20260505210830 31 16 0.0 22.5 0.00 0.00 0.00 15 1018.2
20260505210205 32 322 3.2 24.1 0.00 0.00 0.00 14 1018.2
20260505205605 32 45 4.8 14.5 0.00 0.00 0.00 15 1018.4
20260505205005 31 341 1.6 16.1 0.00 0.00 0.00 17 1018.4
20260505204405 31 64 0.0 22.5 0.00 0.00 0.00 15 1018.5
20260505203805 31 19 3.2 19.3 0.00 0.00 0.00 16 1018.6
20260505203205 32 339 3.2 20.9 0.00 0.00 0.00 17 1018.6
20260505202605 32 186 1.6 14.5 0.00 0.00 0.00 17 1018.8
20260505202005 31 22 0.0 20.9 0.00 0.00 0.00 19 1018.9
20260505201405 31 346 4.8 19.3 0.00 0.00 0.00 18 1018.8
20260505200805 31 346 4.8 25.7 0.00 0.00 0.00 19 1019.0
20260505200217 31 310 9.7 27.4 0.00 0.00 0.00 19 1019.0
20260505195605 31 302 4.8 17.7 0.00 0.00 0.00 20 1019.2
20260505195006 31 334 3.2 22.5 0.00 0.00 0.00 17 1019.2
20260505194442 30 318 3.2 22.5 0.00 0.00 0.00 19 1019.3
20260505193805 30 2 3.2 24.1 0.00 0.00 0.00 19 1019.3
20260505193207 31 251 3.2 25.7 0.00 0.00 0.00 20 1019.4
20260505192605 31 284 0.0 17.7 0.00 0.00 0.00 21 1019.3
20260505192005 31 251 3.2 20.9 0.00 0.00 0.00 22 1019.4
20260505191405 30 324 4.8 20.9 0.00 0.00 0.00 22 1019.5
20260505190805 30 338 0.0 14.5 0.00 0.00 0.00 26 1019.7
20260505190205 30 317 3.2 19.3 0.00 0.00 0.00 26 1019.7
20260505185605 29 213 6.4 17.7 0.00 0.00 0.00 24 1019.7
20260505185005 29 293 0.0 19.3 0.00 0.00 0.00 26 1019.9
20260505184405 28 314 4.8 27.4 0.00 0.00 0.00 28 1019.9
20260505183805 29 330 3.2 25.7 0.00 0.00 0.00 28 1019.9
20260505183205 28 301 4.8 14.5 0.00 0.00 0.00 27 1020.0
20260505182605 29 337 3.2 17.7 0.00 0.00 0.00 28 1020.1
20260505182005 29 348 3.2 25.7 0.00 0.00 0.00 23 1020.1
20260505181405 28 0 4.8 17.7 0.00 0.00 0.00 24 1020.2
20260505180830 28 299 6.4 20.9 0.00 0.00 0.00 28 1020.3